Location: Chervonnoye
(48.6000°N, 34.4000°E)
Time: 10:40:57
(UTC+00:00)

NOAA 15 - Pass Details

Date: 02 December 2021
Orbit: 797 x 812 km, 98.7° (Epoch: 23 January)

Event Time Altitude Azimuth Distance (km) Brightness Sun altitude
Rises 16:36:56 0° 170° (S) 3,317 7.7 -26.9°
Reaches altitude 10° 16:39:17 10° 173° (S) 2,388 7.0 -27.3°
Maximum altitude 16:44:33 70° 257° (WSW) 860 4.8 -28.2°
Drops below altitude 10° 16:49:51 10° 341° (NNW) 2,396 7.2 -29.1°
Sets 16:52:12 0° 344° (NNW) 3,329 8.0 -29.5°
